Location: Aiyekoto
(8.4333°N, 4.3667°E)
Time: 03:29:03
(UTC+00:00)

Hubble Space Telescope - Pass Details

Date: 18 August 2020
Orbit: 536 x 540 km, 28.5° (Epoch: 22 September)

Event Time Altitude Azimuth Distance (km) Brightness Sun altitude
Exits shadow 04:28:25 - 325° (NW) 2,660 4.1 -16.8°
Reaches altitude 10° 04:32:13 10° 1° (N) 1,776 3.6 -15.9°
Maximum altitude 04:33:31 11° 19° (NNE) 1,697 3.8 -15.6°
Drops below altitude 10° 04:34:49 10° 38° (NE) 1,777 4.2 -15.3°
Sets 04:38:38 0° 73° (ENE) 2,669 6.3 -14.4°
